{"data":{"norad_id":66073,"epoch":"2026-09-18T23:43:29.052480Z","epoch_age_seconds":233585,"freshness":"STALE","line1":"1 66073U 25235R   26261.98853070  .00013156  00000+0  39995-3 0  9999","line2":"2 66073  53.1602  66.9066 0000841  79.8845 280.2253 15.34388661 52529","mean_motion":15.34388661,"eccentricity":8.41e-5,"inclination_deg":53.1602,"raan_deg":66.9066,"arg_perigee_deg":79.8845,"mean_anomaly_deg":280.2253,"bstar":0.00039995,"rev_number":5252,"period_min":93.848451608181,"perigee_km":462.16162481369,"apogee_km":463.31225981078,"semimajor_km":6840.8739423122,"source":"CELESTRAK","updated_at":"2026-09-21T09:00:35.796843Z"}}